Volver al catálogo

ONDOSAT-OWL-10

ActivoRadioaficionadoVLEO
NORAD 62404·PAYLOAD·🇲🇳 Mongolia
Este nombre de satélite aún no ha sido confirmado por fuentes oficiales.

Lanzado Dec 21, 2024 desde Vandenberg Space Force Base

Loading…

Próximos Pases (próximas 24 horas)

TLE

EnvejeciendoSource: Space-Track

Época: Sep 13, 2026, 22:30 UTC

1 62404U 24247AD  26256.93773080  .00058422  00000-0  70575-3 0  9991
2 62404  44.9911 105.2339 0007103 207.5401 152.5118 15.59931359 97288

Sigue ONDOSAT-OWL-10 en tiempo real con AllMySat

Download on the App Store